Regional Weather Roundup
Issued by NWS

Home | Current Version | Previous Version | Text Only | Print | Product List | Glossary Off
Versions: 1 2 3 4 5 6 7 8 9 10 11 12 13 14 15 16 17 18 19 20 21 22 23 24 25 26 27 28 29 30 31 32 33 34 35 36 37 38 39 40 41 42 43 44 45 46 47 48 49 50

494
ASUS43 KLMK 031810
RWRKY
KENTUCKY REGIONAL WEATHER ROUNDUP
NATIONAL WEATHER SERVICE LOUISVILLE KY
100 PM EST SAT DEC 03 2016

NOTE "FAIR" INDICATES FEW OR NO CLOUDS BELOW 12,000 FEET
WITH NO SIGNIFICANT WEATHER AND/OR OBSTRUCTIONS TO VISIBILITY.

KYZ001>023-026-027-061>063-070>075-031900-
WESTERN AND SOUTH CENTRAL KENTUCKY

CITY           SKY/WX    TMP DP  RH WIND       PRES   REMARKS
PADUCAH        PTSUNNY   44  30  57 E9        30.35F
HENDERSON      MOSUNNY   45  28  53 E5        30.37F
OWENSBORO      CLOUDY    44  30  57 E9        30.38S
HOPKINSVILLE   CLOUDY    42  31  65 E6        30.34F
BOWLING GREEN  CLOUDY    44  32  62 NE5       30.36F
GLASGOW        CLOUDY    41  32  69 NE5       30.34F
$$

KYZ024-025-028>034-038-045-046-053-031900-
NORTH CENTRAL KENTUCKY

CITY           SKY/WX    TMP DP  RH WIND       PRES   REMARKS
LOUISVILLE/SDF CLOUDY    44  26  49 W3        30.37S
LOUISVILLE/LOU CLOUDY    43  28  55 CALM      30.38R
FORT KNOX      CLOUDY    43  28  54 N3        30.34S
$$

KYZ035>037-039>044-047>052-055>060-089>105-031900-
NORTHEAST KENTUCKY

CITY           SKY/WX    TMP DP  RH WIND       PRES   REMARKS
LEXINGTON      CLOUDY    41  28  60 NW3       30.34S
COVINGTON      CLOUDY    40  30  67 CALM      30.33F
FRANKFORT      CLOUDY    43  26  51 CALM      30.34S
$$

KYZ054-064>069-076>088-106>120-031900-
SOUTHEAST KENTUCKY

CITY           SKY/WX    TMP DP  RH WIND       PRES   REMARKS
JACKSON        CLOUDY    40  29  64 CALM      30.31S
LONDON         CLOUDY    40  27  59 CALM      30.32S
SOMERSET       PTSUNNY   41  30  65 N6        30.35S
MIDDLESBORO    PTSUNNY   41  30  65 CALM      30.32S
MONTICELLO     CLOUDY    41  30  65 VRB7      30.36S
$$





USA.gov is the U.S. government's official web portal to all federal, state and local government web resources and services.